| time (UTC) | temp F | wind direction | speed MPH | gust MPH | rain 1hr in | rain 24hr in | rain mn in | humidity % | barometer mb |
| 20260831140921 | 78 | 215 | 2.0 | 9.0 | 0.00 | 0.00 | 0.00 | 77 | 1019.6 |
| 20260831140756 | 78 | 215 | 2.0 | 9.0 | 0.00 | 0.00 | 0.00 | 77 | 1019.6 |
| 20260831140719 | 78 | 215 | 2.0 | 9.0 | 0.00 | 0.00 | 0.00 | 77 | 1019.6 |
| 20260831140331 | 78 | 211 | 3.0 | 9.0 | 0.00 | 0.00 | 0.00 | 77 | 1019.6 |
| 20260831133915 | 78 | 211 | 2.0 | 6.0 | 0.00 | 0.00 | 0.00 | 77 | 1019.7 |
| 20260831132926 | 78 | 192 | 2.0 | 5.0 | 0.00 | 0.00 | 0.00 | 77 | 1019.7 |
| 20260831130819 | 77 | 209 | 1.0 | 6.0 | 0.00 | 0.00 | 0.00 | 77 | 1019.5 |
| 20260831130319 | 77 | 202 | 2.0 | 6.0 | 0.00 | 0.00 | 0.00 | 77 | 1019.3 |
| 20260831125136 | 76 | 223 | 2.0 | 7.0 | 0.00 | 0.00 | 0.00 | 79 | 1019.2 |
| 20260831124945 | 75 | 213 | 3.0 | 7.0 | 0.00 | 0.00 | 0.00 | 80 | 1019.1 |
| 20260831124239 | 74 | 219 | 1.0 | 4.0 | 0.00 | 0.00 | 0.00 | 81 | 1019.0 |
| 20260831123230 | 74 | 188 | 1.0 | 7.0 | 0.00 | 0.00 | 0.00 | 81 | 1018.9 |
| 20260831122821 | 74 | 167 | 2.0 | 7.0 | 0.00 | 0.00 | 0.00 | 81 | 1018.9 |
| 20260831122439 | 74 | 178 | 2.0 | 6.0 | 0.00 | 0.00 | 0.00 | 81 | 1018.9 |
| 20260831121721 | 73 | 169 | 2.0 | 6.0 | 0.00 | 0.00 | 0.00 | 81 | 1018.9 |
| 20260831115042 | 73 | 186 | 2.0 | 6.0 | 0.00 | 0.00 | 0.00 | 81 | 1018.9 |
| 20260831115014 | 73 | 171 | 1.0 | 4.0 | 0.00 | 0.00 | 0.00 | 82 | 1018.8 |
| 20260831113945 | 73 | 165 | 1.0 | 4.0 | 0.00 | 0.00 | 0.00 | 82 | 1018.8 |
| 20260831113427 | 73 | 207 | 1.0 | 3.0 | 0.00 | 0.00 | 0.00 | 82 | 1018.8 |
| 20260831113352 | 73 | 207 | 1.0 | 3.0 | 0.00 | 0.00 | 0.00 | 82 | 1018.8 |
| 20260831110454 | 72 | 186 | 0.0 | 4.0 | 0.00 | 0.00 | 0.00 | 83 | 1018.7 |
| 20260831105719 | 72 | 0 | 1.0 | 4.0 | 0.00 | 0.00 | 0.00 | 83 | 1018.7 |
| 20260831105235 | 72 | 0 | 1.0 | 5.0 | 0.00 | 0.00 | 0.00 | 83 | 1018.6 |
| 20260831102919 | 72 | 173 | 2.0 | 4.0 | 0.00 | 0.00 | 0.00 | 84 | 1018.3 |
| 20260831102150 | 72 | 167 | 1.0 | 4.0 | 0.00 | 0.00 | 0.00 | 83 | 1018.2 |
| 20260831101801 | 72 | 167 | 0.0 | 3.0 | 0.00 | 0.00 | 0.00 | 83 | 1018.2 |
| 20260831101319 | 72 | 167 | 1.0 | 3.0 | 0.00 | 0.00 | 0.00 | 83 | 1018.2 |
| 20260831100923 | 72 | 173 | 0.0 | 2.0 | 0.00 | 0.00 | 0.00 | 82 | 1018.3 |
| 20260831094739 | 73 | 0 | 0.0 | 1.0 | 0.00 | 0.00 | 0.00 | 81 | 1018.3 |
| 20260831094427 | 73 | 0 | 0.0 | 1.0 | 0.00 | 0.00 | 0.00 | 81 | 1018.5 |
| 20260831094341 | 73 | 0 | 0.0 | 1.0 | 0.00 | 0.00 | 0.00 | 81 | 1018.5 |
| 20260831093958 | 73 | 173 | 0.0 | 1.0 | 0.00 | 0.00 | 0.00 | 80 | 1018.4 |
| 20260831093238 | 73 | 0 | 0.0 | 2.0 | 0.00 | 0.00 | 0.00 | 80 | 1018.4 |
| 20260831093001 | 73 | 0 | 0.0 | 2.0 | 0.00 | 0.00 | 0.00 | 80 | 1018.3 |
| 20260831092929 | 73 | 0 | 0.0 | 2.0 | 0.00 | 0.00 | 0.00 | 80 | 1018.3 |
| 20260831092434 | 73 | 0 | 0.0 | 2.0 | 0.00 | 0.00 | 0.00 | 80 | 1018.4 |
| 20260831091759 | 73 | 0 | 0.0 | 2.0 | 0.00 | 0.00 | 0.00 | 80 | 1018.3 |
| 20260831091418 | 73 | 0 | 0.0 | 1.0 | 0.00 | 0.00 | 0.00 | 80 | 1018.3 |
| 20260831090452 | 74 | 173 | 0.0 | 3.0 | 0.00 | 0.00 | 0.00 | 80 | 1018.3 |
| 20260831090014 | 74 | 173 | 1.0 | 3.0 | 0.00 | 0.00 | 0.00 | 80 | 1018.2 |
| 20260831083225 | 74 | 181 | 0.0 | 3.0 | 0.00 | 0.00 | 0.00 | 79 | 1018.0 |
| 20260831082700 | 74 | 183 | 0.0 | 3.0 | 0.00 | 0.00 | 0.00 | 79 | 1018.0 |
| 20260831081910 | 74 | 184 | 1.0 | 3.0 | 0.00 | 0.00 | 0.00 | 79 | 1017.8 |
| 20260831080401 | 74 | 175 | 1.0 | 4.0 | 0.00 | 0.00 | 0.00 | 78 | 1017.7 |
| 20260831075434 | 74 | 177 | 1.0 | 3.0 | 0.00 | 0.00 | 0.00 | 78 | 1017.6 |
| 20260831073722 | 74 | 0 | 2.0 | 4.0 | 0.00 | 0.00 | 0.00 | 78 | 1017.6 |
| 20260831073414 | 74 | 166 | 0.0 | 4.0 | 0.00 | 0.00 | 0.00 | 78 | 1017.6 |
| 20260831072957 | 74 | 165 | 1.0 | 5.0 | 0.00 | 0.00 | 0.00 | 78 | 1017.7 |
| 20260831072926 | 74 | 165 | 1.0 | 5.0 | 0.00 | 0.00 | 0.00 | 78 | 1017.7 |
| 20260831071837 | 74 | 185 | 1.0 | 4.0 | 0.00 | 0.00 | 0.00 | 78 | 1017.8 |
| 20260831071220 | 74 | 0 | 1.0 | 4.0 | 0.00 | 0.00 | 0.00 | 79 | 1017.7 |
| 20260831070849 | 74 | 182 | 1.0 | 5.0 | 0.00 | 0.00 | 0.00 | 79 | 1017.7 |
| 20260831070250 | 74 | 174 | 1.0 | 6.0 | 0.00 | 0.00 | 0.00 | 79 | 1017.7 |
| 20260831070058 | 74 | 178 | 2.0 | 7.0 | 0.00 | 0.00 | 0.00 | 79 | 1017.7 |
| 20260831064701 | 74 | 140 | 2.0 | 7.0 | 0.00 | 0.00 | 0.00 | 80 | 1017.5 |
| 20260831064216 | 74 | 154 | 3.0 | 6.0 | 0.00 | 0.00 | 0.00 | 80 | 1017.7 |
| 20260831063817 | 74 | 162 | 2.0 | 6.0 | 0.00 | 0.00 | 0.00 | 80 | 1017.8 |
| 20260831063415 | 74 | 179 | 2.0 | 7.0 | 0.00 | 0.00 | 0.00 | 80 | 1018.0 |
| 20260831063330 | 74 | 179 | 2.0 | 7.0 | 0.00 | 0.00 | 0.00 | 80 | 1018.0 |
| 20260831062822 | 74 | 157 | 2.0 | 7.0 | 0.00 | 0.00 | 0.00 | 80 | 1018.0 |
| 20260831061039 | 74 | 142 | 1.0 | 4.0 | 0.00 | 0.00 | 0.00 | 80 | 1018.4 |
| 20260831055925 | 74 | 138 | 2.0 | 5.0 | 0.00 | 0.00 | 0.00 | 80 | 1018.4 |
| 20260831054920 | 74 | 150 | 2.0 | 5.0 | 0.00 | 0.00 | 0.00 | 80 | 1018.4 |
| 20260831053602 | 75 | 159 | 1.0 | 3.0 | 0.00 | 0.00 | 0.00 | 80 | 1018.6 |
| 20260831052839 | 75 | 126 | 1.0 | 3.0 | 0.00 | 0.00 | 0.00 | 80 | 1018.5 |
| 20260831052026 | 75 | 114 | 1.0 | 4.0 | 0.00 | 0.00 | 0.00 | 80 | 1018.6 |
| 20260831051629 | 75 | 121 | 1.0 | 4.0 | 0.00 | 0.00 | 0.00 | 80 | 1018.6 |
| 20260831051118 | 75 | 97 | 1.0 | 3.0 | 0.00 | 0.00 | 0.00 | 80 | 1018.6 |
| 20260831050554 | 75 | 153 | 1.0 | 6.0 | 0.00 | 0.00 | 0.00 | 79 | 1018.5 |
| 20260831050418 | 75 | 132 | 1.0 | 6.0 | 0.00 | 0.00 | 0.00 | 79 | 1018.5 |
| 20260831050342 | 75 | 132 | 1.0 | 6.0 | 0.00 | 0.00 | 0.00 | 79 | 1018.5 |
| 20260831045942 | 75 | 113 | 1.0 | 4.0 | 0.00 | 0.00 | 0.00 | 80 | 1018.4 |
| 20260831045255 | 75 | 119 | 1.0 | 4.0 | 0.00 | 0.00 | 0.00 | 80 | 1018.4 |
| 20260831045024 | 75 | 119 | 1.0 | 4.0 | 0.00 | 0.00 | 0.00 | 80 | 1018.4 |
| 20260831044644 | 75 | 113 | 1.0 | 3.0 | 0.00 | 0.00 | 0.00 | 80 | 1018.5 |
| 20260831044420 | 74 | 0 | 0.0 | 3.0 | 0.00 | 0.00 | 0.00 | 81 | 1018.5 |
| 20260831043127 | 74 | 119 | 1.0 | 3.0 | 0.00 | 0.00 | 0.00 | 81 | 1018.3 |
| 20260831042540 | 74 | 111 | 1.0 | 3.0 | 0.00 | 0.00 | 0.00 | 81 | 1018.3 |
| 20260831041725 | 74 | 119 | 1.0 | 3.0 | 0.00 | 0.00 | 0.00 | 81 | 1018.4 |
| 20260831041538 | 74 | 105 | 1.0 | 3.0 | 0.00 | 0.00 | 0.00 | 81 | 1018.4 |
| 20260831041421 | 74 | 105 | 1.0 | 3.0 | 0.00 | 0.00 | 0.00 | 81 | 1018.4 |
| 20260831040525 | 74 | 118 | 1.0 | 3.0 | 0.00 | 0.00 | 0.00 | 81 | 1018.4 |
| 20260831040359 | 74 | 119 | 1.0 | 3.0 | 0.00 | 0.00 | 0.00 | 81 | 1018.5 |
| 20260831035036 | 74 | 112 | 1.0 | 2.0 | 0.00 | 0.00 | 0.00 | 81 | 1018.5 |
| 20260831034637 | 74 | 0 | 0.0 | 2.0 | 0.00 | 0.00 | 0.00 | 81 | 1018.4 |
| 20260831034219 | 75 | 0 | 0.0 | 2.0 | 0.00 | 0.00 | 0.00 | 81 | 1018.5 |
| 20260831032541 | 75 | 113 | 0.0 | 3.0 | 0.00 | 0.00 | 0.00 | 81 | 1018.5 |
| 20260831032053 | 75 | 113 | 1.0 | 3.0 | 0.00 | 0.00 | 0.00 | 81 | 1018.6 |
| 20260831031955 | 75 | 112 | 1.0 | 3.0 | 0.00 | 0.00 | 0.00 | 81 | 1018.6 |
| 20260831031332 | 75 | 119 | 1.0 | 3.0 | 0.00 | 0.00 | 0.00 | 81 | 1018.6 |
| 20260831030821 | 75 | 116 | 1.0 | 3.0 | 0.00 | 0.00 | 0.00 | 81 | 1018.7 |
| 20260831030346 | 75 | 119 | 1.0 | 3.0 | 0.00 | 0.00 | 0.00 | 81 | 1018.7 |
| 20260831025830 | 75 | 119 | 1.0 | 3.0 | 0.00 | 0.00 | 0.00 | 81 | 1018.7 |
| 20260831025251 | 75 | 133 | 1.0 | 3.0 | 0.00 | 0.00 | 0.00 | 81 | 1018.7 |
| 20260831025003 | 75 | 148 | 1.0 | 3.0 | 0.00 | 0.00 | 0.00 | 81 | 1018.7 |
| 20260831024101 | 76 | 302 | 1.0 | 3.0 | 0.00 | 0.00 | 0.00 | 81 | 1018.7 |
| 20260831023815 | 76 | 302 | 0.0 | 2.0 | 0.00 | 0.00 | 0.00 | 81 | 1018.6 |
| 20260831023420 | 76 | 0 | 0.0 | 2.0 | 0.00 | 0.00 | 0.00 | 81 | 1018.7 |
| 20260831022918 | 76 | 0 | 0.0 | 1.0 | 0.00 | 0.00 | 0.00 | 81 | 1018.6 |
| 20260831022439 | 76 | 0 | 0.0 | 1.0 | 0.00 | 0.00 | 0.00 | 80 | 1018.6 |
| 20260831021825 | 76 | 0 | 0.0 | 1.0 | 0.00 | 0.00 | 0.00 | 80 | 1018.6 |
| 20260831021404 | 76 | 301 | 0.0 | 1.0 | 0.00 | 0.00 | 0.00 | 80 | 1018.5 |
| 20260831020703 | 76 | 0 | 0.0 | 1.0 | 0.00 | 0.00 | 0.00 | 80 | 1018.5 |
| 20260831020603 | 76 | 0 | 0.0 | 1.0 | 0.00 | 0.00 | 0.00 | 80 | 1018.5 |
| 20260831020424 | 76 | 0 | 0.0 | 1.0 | 0.00 | 0.00 | 0.00 | 80 | 1018.5 |
| 20260831015425 | 77 | 0 | 0.0 | 2.0 | 0.00 | 0.00 | 0.00 | 79 | 1018.4 |
| 20260831014239 | 77 | 0 | 0.0 | 1.0 | 0.00 | 0.00 | 0.00 | 78 | 1018.5 |
| 20260831013945 | 77 | 0 | 0.0 | 1.0 | 0.00 | 0.00 | 0.00 | 78 | 1018.5 |
| 20260831013240 | 77 | 0 | 0.0 | 1.0 | 0.00 | 0.00 | 0.00 | 78 | 1018.5 |
| 20260831012620 | 77 | 0 | 0.0 | 1.0 | 0.00 | 0.00 | 0.00 | 78 | 1018.5 |
| 20260831012159 | 77 | 0 | 0.0 | 1.0 | 0.00 | 0.00 | 0.00 | 77 | 1018.5 |
| 20260831011758 | 77 | 0 | 0.0 | 0.0 | 0.00 | 0.00 | 0.00 | 77 | 1018.4 |
| 20260831011445 | 78 | 0 | 0.0 | 0.0 | 0.00 | 0.00 | 0.00 | 77 | 1018.3 |
| 20260831010917 | 78 | 0 | 0.0 | 0.0 | 0.00 | 0.00 | 0.00 | 76 | 1018.3 |
| 20260831010619 | 78 | 0 | 0.0 | 0.0 | 0.00 | 0.00 | 0.00 | 76 | 1018.3 |
| 20260831010416 | 78 | 0 | 0.0 | 0.0 | 0.00 | 0.00 | 0.00 | 76 | 1018.4 |
| 20260831005430 | 79 | 0 | 0.0 | 0.0 | 0.00 | 0.00 | 0.00 | 74 | 1018.2 |
| 20260831004936 | 80 | 0 | 0.0 | 0.0 | 0.00 | 0.00 | 0.00 | 73 | 1018.2 |
| 20260831003819 | 80 | 0 | 0.0 | 0.0 | 0.00 | 0.00 | 0.00 | 72 | 1018.1 |
| 20260831003324 | 81 | 0 | 0.0 | 0.0 | 0.00 | 0.00 | 0.00 | 71 | 1018.2 |
| 20260831002949 | 81 | 0 | 0.0 | 0.0 | 0.00 | 0.00 | 0.00 | 70 | 1018.2 |
| 20260831002031 | 81 | 0 | 0.0 | 0.0 | 0.00 | 0.00 | 0.00 | 70 | 1018.2 |
| 20260831001245 | 82 | 0 | 0.0 | 0.0 | 0.00 | 0.00 | 0.00 | 69 | 1018.2 |
| 20260831000836 | 82 | 0 | 0.0 | 0.0 | 0.00 | 0.00 | 0.00 | 68 | 1018.2 |
| 20260831000233 | 83 | 0 | 0.0 | 0.0 | 0.00 | 0.00 | 0.00 | 68 | 1018.0 |
| 20260830235650 | 83 | 0 | 0.0 | 0.0 | 0.00 | 0.00 | 0.00 | 68 | 1018.2 |
| 20260830235033 | 84 | 0 | 0.0 | 3.0 | 0.00 | 0.00 | 0.00 | 68 | 1018.2 |
| 20260830234709 | 84 | 0 | 0.0 | 3.0 | 0.00 | 0.00 | 0.00 | 67 | 1018.1 |
| 20260830233654 | 84 | 0 | 0.0 | 0.0 | 0.00 | 0.00 | 0.00 | 65 | 1018.1 |
| 20260830232804 | 84 | 0 | 0.0 | 0.0 | 0.00 | 0.00 | 0.00 | 65 | 1018.0 |
| 20260830232245 | 85 | 0 | 0.0 | 2.0 | 0.00 | 0.00 | 0.00 | 65 | 1018.0 |
| 20260830230855 | 85 | 0 | 0.0 | 1.0 | 0.00 | 0.00 | 0.00 | 64 | 1018.0 |
| 20260830230227 | 85 | 0 | 0.0 | 2.0 | 0.00 | 0.00 | 0.00 | 63 | 1018.0 |
| 20260830225920 | 85 | 0 | 0.0 | 2.0 | 0.00 | 0.00 | 0.00 | 63 | 1017.9 |
| 20260830225420 | 85 | 267 | 0.0 | 3.0 | 0.00 | 0.00 | 0.00 | 63 | 1017.9 |
| 20260830224821 | 85 | 268 | 0.0 | 4.0 | 0.00 | 0.00 | 0.00 | 67 | 1017.9 |
| 20260830224720 | 85 | 268 | 0.0 | 4.0 | 0.00 | 0.00 | 0.00 | 67 | 1017.9 |
| 20260830224435 | 85 | 207 | 0.0 | 4.0 | 0.00 | 0.00 | 0.00 | 67 | 1017.8 |
| 20260830223535 | 85 | 0 | 0.0 | 4.0 | 0.00 | 0.00 | 0.00 | 62 | 1017.8 |
| 20260830223439 | 84 | 0 | 0.0 | 4.0 | 0.00 | 0.00 | 0.00 | 62 | 1017.7 |
| 20260830223034 | 84 | 0 | 1.0 | 4.0 | 0.00 | 0.00 | 0.00 | 61 | 1017.6 |
| 20260830222833 | 84 | 0 | 1.0 | 4.0 | 0.00 | 0.00 | 0.00 | 61 | 1017.6 |
| 20260830222458 | 84 | 0 | 0.0 | 4.0 | 0.00 | 0.00 | 0.00 | 62 | 1017.5 |
| 20260830222216 | 84 | 0 | 0.0 | 4.0 | 0.00 | 0.00 | 0.00 | 62 | 1017.5 |
| 20260830221726 | 84 | 207 | 1.0 | 4.0 | 0.00 | 0.00 | 0.00 | 61 | 1017.6 |
| 20260830221654 | 84 | 207 | 1.0 | 4.0 | 0.00 | 0.00 | 0.00 | 61 | 1017.6 |
| 20260830221125 | 84 | 0 | 0.0 | 5.0 | 0.00 | 0.00 | 0.00 | 66 | 1017.6 |
| 20260830221024 | 84 | 0 | 0.0 | 5.0 | 0.00 | 0.00 | 0.00 | 66 | 1017.6 |
| 20260830220821 | 84 | 0 | 2.0 | 5.0 | 0.00 | 0.00 | 0.00 | 59 | 1017.6 |
| 20260830220152 | 85 | 200 | 2.0 | 6.0 | 0.00 | 0.00 | 0.00 | 60 | 1017.6 |
| 20260830215207 | 85 | 200 | 3.0 | 5.0 | 0.00 | 0.00 | 0.00 | 60 | 1017.6 |
| 20260830213444 | 85 | 224 | 2.0 | 5.0 | 0.00 | 0.00 | 0.00 | 58 | 1017.9 |
| 20260830212804 | 85 | 173 | 0.0 | 6.0 | 0.00 | 0.00 | 0.00 | 59 | 1017.8 |
| 20260830212120 | 85 | 208 | 0.0 | 7.0 | 0.00 | 0.00 | 0.00 | 60 | 1017.8 |
| 20260830211921 | 85 | 166 | 3.0 | 10.0 | 0.00 | 0.00 | 0.00 | 58 | 1017.6 |
| 20260830205020 | 85 | 0 | 3.0 | 6.0 | 0.00 | 0.00 | 0.00 | 58 | 1018.1 |
| 20260830204316 | 85 | 215 | 2.0 | 5.0 | 0.00 | 0.00 | 0.00 | 58 | 1018.2 |
| 20260830202739 | 85 | 196 | 2.0 | 6.0 | 0.00 | 0.00 | 0.00 | 63 | 1018.4 |
| 20260830202336 | 85 | 219 | 3.0 | 7.0 | 0.00 | 0.00 | 0.00 | 55 | 1018.4 |
| 20260830201615 | 86 | 178 | 3.0 | 7.0 | 0.00 | 0.00 | 0.00 | 55 | 1018.6 |
| 20260830201125 | 86 | 267 | 3.0 | 7.0 | 0.00 | 0.00 | 0.00 | 53 | 1018.6 |
| 20260830195624 | 89 | 245 | 3.0 | 6.0 | 0.00 | 0.00 | 0.00 | 51 | 1018.7 |
| 20260830195256 | 88 | 248 | 1.0 | 5.0 | 0.00 | 0.00 | 0.00 | 54 | 1018.9 |
| 20260830194800 | 88 | 245 | 1.0 | 5.0 | 0.00 | 0.00 | 0.00 | 54 | 1018.9 |
| 20260830194113 | 88 | 159 | 2.0 | 6.0 | 0.00 | 0.00 | 0.00 | 53 | 1019.0 |
| 20260830192901 | 88 | 219 | 2.0 | 6.0 | 0.00 | 0.00 | 0.00 | 54 | 1019.2 |
| 20260830192436 | 88 | 220 | 2.0 | 6.0 | 0.00 | 0.00 | 0.00 | 60 | 1019.4 |
| 20260830191626 | 88 | 233 | 0.0 | 5.0 | 0.00 | 0.00 | 0.00 | 60 | 1019.5 |
| 20260830190649 | 88 | 0 | 1.0 | 4.0 | 0.00 | 0.00 | 0.00 | 53 | 1019.6 |
| 20260830183851 | 89 | 0 | 0.0 | 6.0 | 0.00 | 0.00 | 0.00 | 50 | 1020.1 |
| 20260830181924 | 87 | 0 | 0.0 | 2.0 | 0.00 | 0.00 | 0.00 | 55 | 1020.2 |
| 20260830175831 | 88 | 302 | 1.0 | 4.0 | 0.00 | 0.00 | 0.00 | 51 | 1020.7 |
| 20260830174848 | 88 | 0 | 1.0 | 4.0 | 0.00 | 0.00 | 0.00 | 53 | 1020.9 |
| 20260830174142 | 88 | 300 | 0.0 | 4.0 | 0.00 | 0.00 | 0.00 | 54 | 1021.0 |
| 20260830173724 | 88 | 283 | 1.0 | 5.0 | 0.00 | 0.00 | 0.00 | 60 | 1021.1 |
| 20260830172337 | 88 | 0 | 0.0 | 6.0 | 0.00 | 0.00 | 0.00 | 55 | 1021.1 |
| 20260830171628 | 89 | 254 | 1.0 | 6.0 | 0.00 | 0.00 | 0.00 | 53 | 1021.1 |
| 20260830170910 | 88 | 309 | 2.0 | 7.0 | 0.00 | 0.00 | 0.00 | 54 | 1021.1 |
| 20260830170418 | 88 | 246 | 1.0 | 7.0 | 0.00 | 0.00 | 0.00 | 62 | 1021.1 |
| 20260830165117 | 87 | 270 | 1.0 | 7.0 | 0.00 | 0.00 | 0.00 | 57 | 1021.2 |
| 20260830164609 | 87 | 286 | 2.0 | 7.0 | 0.00 | 0.00 | 0.00 | 59 | 1021.3 |
| 20260830164353 | 87 | 211 | 1.0 | 7.0 | 0.00 | 0.00 | 0.00 | 59 | 1021.3 |
| 20260830163959 | 87 | 258 | 2.0 | 7.0 | 0.00 | 0.00 | 0.00 | 60 | 1021.3 |
| 20260830163759 | 87 | 258 | 2.0 | 7.0 | 0.00 | 0.00 | 0.00 | 60 | 1021.3 |
| 20260830162526 | 86 | 278 | 2.0 | 6.0 | 0.00 | 0.00 | 0.00 | 64 | 1021.3 |
| 20260830162425 | 86 | 276 | 2.0 | 6.0 | 0.00 | 0.00 | 0.00 | 59 | 1021.2 |
| 20260830160815 | 85 | 266 | 2.0 | 7.0 | 0.00 | 0.00 | 0.00 | 62 | 1021.3 |
| 20260830160240 | 84 | 227 | 2.0 | 6.0 | 0.00 | 0.00 | 0.00 | 63 | 1021.3 |
| 20260830155701 | 84 | 236 | 2.0 | 6.0 | 0.00 | 0.00 | 0.00 | 65 | 1021.3 |
| 20260830155140 | 84 | 167 | 1.0 | 4.0 | 0.00 | 0.00 | 0.00 | 69 | 1021.3 |
| 20260830154859 | 83 | 242 | 1.0 | 4.0 | 0.00 | 0.00 | 0.00 | 62 | 1021.2 |
| 20260830153819 | 83 | 246 | 2.0 | 7.0 | 0.00 | 0.00 | 0.00 | 62 | 1021.0 |
| 20260830153136 | 83 | 235 | 1.0 | 7.0 | 0.00 | 0.00 | 0.00 | 64 | 1020.9 |
| 20260830152523 | 82 | 244 | 2.0 | 7.0 | 0.00 | 0.00 | 0.00 | 64 | 1020.8 |
| 20260830152420 | 82 | 238 | 2.0 | 5.0 | 0.00 | 0.00 | 0.00 | 69 | 1020.6 |
| 20260830151631 | 82 | 209 | 1.0 | 8.0 | 0.00 | 0.00 | 0.00 | 65 | 1020.6 |
| 20260830150639 | 82 | 268 | 3.0 | 8.0 | 0.00 | 0.00 | 0.00 | 64 | 1020.4 |
| 20260830150134 | 81 | 246 | 3.0 | 8.0 | 0.00 | 0.00 | 0.00 | 65 | 1020.2 |
| 20260830145427 | 81 | 200 | 3.0 | 6.0 | 0.00 | 0.00 | 0.00 | 64 | 1020.1 |
| 20260830144547 | 81 | 225 | 3.0 | 10.0 | 0.00 | 0.00 | 0.00 | 67 | 1019.9 |
| 20260830143619 | 81 | 219 | 2.0 | 7.0 | 0.00 | 0.00 | 0.00 | 67 | 1019.8 |
| 20260830143347 | 81 | 186 | 1.0 | 7.0 | 0.00 | 0.00 | 0.00 | 68 | 1019.9 |
| 20260830142642 | 80 | 225 | 3.0 | 7.0 | 0.00 | 0.00 | 0.00 | 67 | 1019.8 |
| 20260830142528 | 80 | 225 | 3.0 | 7.0 | 0.00 | 0.00 | 0.00 | 67 | 1019.8 |
| 20260830142427 | 80 | 223 | 2.0 | 10.0 | 0.00 | 0.00 | 0.00 | 69 | 1019.7 |